Regional Weather Roundup
Issued by NWS

Home | Current Version | Previous Version | Text Only | Print | Product List | Glossary On
Versions: 1 2 3 4 5 6 7 8 9 10 11 12 13 14 15 16 17 18 19 20 21 22 23 24 25 26 27 28 29 30 31 32 33 34 35 36 37 38 39 40 41 42 43 44 45 46 47 48 49 50
000
ASCA44 KEWX 311420
RWRMX

LATIN AMERICA AND CARIBBEAN REGIONAL WEATHER ROUNDUP
NATIONAL WEATHER SERVICE AUSTIN/SAN ANTONIO TX
900 AM CDT FRI OCT 31 2014

NOTE: "FAIR" INDICATED FEW OR NO CLOUDS BELOW 12,000 FEET WITH NO
SIGNIFICANT WEATHER AND/OR OBSTRUCTIONS TO VISIBILITY.

BAJA CALIFORNIA

CITY           SKY/WX    TMP DP  RH WIND       PRES   REMARKS
LORETO         MOCLDY    75  57  53 NW12      29.87
MEXICALI       CLEAR     57  41  54 SE3       29.85
TIJUANA        CLOUDY    66  54  63 CALM      29.97S

NORTHWESTERN MEXICO

CITY           SKY/WX    TMP DP  RH WIND       PRES   REMARKS
CULIACAN       PTCLDY    72  70  94 CALM      29.87
DURANGO        SUNNY     45  39  81 N2        30.36R
GUAYMAS        MOCLDY    72  64  78 CALM      29.83
HERMOSILLO     CLOUDY    64  57  77 CALM      29.91
CD. JUAREZ     PTCLDY    57  52  82 MISG      30.27
OBREGON        MOCLDY    70  63  78 SE5       29.85

NORTHEASTERN MEXICO

CITY           SKY/WX    TMP DP  RH WIND       PRES   REMARKS
CHIHUAHUA      PTCLDY    46  43  87 S5        30.31  WCI  44
MATAMOROS      MOSUNNY   70  70 100 CALM      30.12
MONCLOVA       SUNNY     64  59  82 CALM      30.18
MONTERREY      SUNNY     64  61  88 NW16      30.17R
NUEVO LAREDO   CLOUDY    70  63  78 E16       30.21
PIEDRAS NEGRAS RAIN      66  66 100 E9        30.24R VSB 1
REYNOSA        SUNNY     70  66  88 NW2       30.13
SALTILLO       SUNNY     55  39  54 CALM      30.33R
TORREON        SUNNY     63  45  51 CALM      30.24R
CD. VICTORIA   FOG       66  66 100 W5        30.15  VSB 1/8

WESTERN MEXICO

CITY           SKY/WX    TMP DP  RH WIND       PRES   REMARKS
AGUASCALIENTES SUNNY     48  39  71 N8        30.35  WCI  45
COLIMA         SUNNY     73  63  68 NE12      29.95F
DEL BAJIO      SUNNY     55  45  67 N6        30.35R
GUADALAJARA    MOSUNNY   55  46  71 CALM      30.26
MANZANILLO     MOSUNNY   79  77  94 NE8       29.80R
MAZATLAN       SUNNY     68  66  94 N9        29.84R
P. VALLARTA    SUNNY     75  73  94 CALM      29.84R
URUAPAN        PTSUNNY   54  52  94 CALM      30.17R
ZACATECAS      SUNNY     48  39  71 CALM      30.36R

CENTRAL MEXICO

CITY           SKY/WX    TMP DP  RH WIND       PRES   REMARKS
MEXICO CITY    CLOUDY    54  46  76 E6        30.39R
MORELIA        SUNNY     45  45 100 CALM      30.30
POZA RICA      MOSUNNY   73  68  83 CALM      30.12
PUEBLA         PTSUNNY   52  46  82 N9        30.36R
QUERETARO      MOSUNNY   50  46  87 E12       30.34S WCI  46
S. LUIS POTOSI FOG       46  46 100 CALM      30.35R VSB 1
TAMPICO        MOSUNNY   75  68  78 W7        30.10R
TOLUCA         MOSUNNY   41  36  81 NW8       30.40R FOG     WCI  36

SOUTHERN MEXICO

CITY           SKY/WX    TMP DP  RH WIND       PRES   REMARKS
ACAPULCO       CLOUDY    77  72  83 N7        29.84R
B. DE HUATULCO MOSUNNY   79  66  65 CALM      29.90
OAXACA         PTSUNNY   63  55  77 N9        30.24R
P. ESCONDIDO   MOSUNNY   77  72  83 E12       29.98R
VERACRUZ       PTSUNNY   75  68  78 E12       30.02R
ZIHUATANEJO    MOSUNNY   77  72  83 CALM      29.85R

YUCATAN PENINSULA

CITY           SKY/WX    TMP DP  RH WIND       PRES   REMARKS
CAMPECHE       MOSUNNY   77  73  88 N12       29.97R
CANCUN         MOSUNNY   77  72  83 N5        29.95R
CHETUMAL       MOSUNNY   75  68  78 CALM      29.94R
CD. DEL CARMEN CLOUDY    81  73  78 E9        29.97
COZUMEL        MOSUNNY   75  72  88 N7        29.95R
MERIDA         MOSUNNY   79  72  78 N7        29.98R
MINATITLAN     CLOUDY    79  68  69 NW12G28   29.97
TAPACHULA      CLOUDY    75  73  94 CALM      29.89R
TUX. GUTIERREZ PTSUNNY   72  70  94 S2        29.98R
VILLAHERMOSA   LGT RAIN  73  72  94 CALM      30.00R HAZE

CENTRAL AMERICA

CITY           SKY/WX    TMP DP  RH WIND       PRES   REMARKS
BELIZE CITY    PTSUNNY   75  75 100 N8        29.95R
MANAGUA        MOSUNNY   82  73  74 E7        29.83S

CARIBBEAN

CITY           SKY/WX    TMP DP  RH WIND       PRES   REMARKS
ARUBA          MOSUNNY   88  75  66 E21       29.83S HX  97
CURACAO        MOSUNNY   86  77  74 E14       29.86S HX  97
KINGSTON       MOSUNNY   86  73  66 NW3       29.86R HX  93
NASSAU         MOSUNNY   79  68  69 W9        29.89R
SAN JUAN       MOSUNNY   88  75  66 SE5       29.90R HX  97
SANTO DOMINGO  MOSUNNY   82  75  78 MISG      29.86S
ST. KITTS      MOSUNNY   86  73  66 SE6       29.94R HX  93
ST. MAARTEN    MOSUNNY   86  75  70 SE6       29.94R HX  95
ST. THOMAS     PTSUNNY   84  75  74 S8        29.92  HX  92

$$




USA.gov is the U.S. government's official web portal to all federal, state and local government web resources and services.